Location: Whelan
(46.7841°N, 117.1166°W)
Time: 02:31:33
(UTC+00:00)

Envisat - Visible Passes

Search period start: 16 April 2024 00:00
Search period end: 26 April 2024 00:00
Orbit: 762 x 764 km, 98.3° (Epoch: 15 April)

Date Brightness Start Highest point End Pass type
(mag) Time Alt. Az. Time Alt. Az. Time Alt. Az.
16 Apr 5.5 09:52:42 10° NE 09:55:33 15° E 09:58:25 10° ESE visible
16 Apr 2.9 11:30:02 10° N 11:35:07 77° WNW 11:39:52 12° SSW visible
17 Apr 3.7 10:52:47 10° NNE 10:57:45 51° E 11:02:13 13° S visible
18 Apr 4.9 10:16:03 10° NE 10:20:11 24° E 10:24:17 10° SSE visible
18 Apr 3.4 11:54:30 10° N 11:59:22 47° WNW 12:04:13 10° SW visible
19 Apr 5.7 09:40:51 10° ENE 09:42:23 11° E 09:43:55 10° ESE visible
19 Apr 3.0 11:17:01 10° NNE 11:22:09 84° ESE 11:27:04 11° SSW visible
20 Apr 4.2 10:39:56 10° NNE 10:44:42 39° E 10:49:23 10° SSE visible
21 Apr 5.3 10:03:28 10° NE 10:07:03 19° E 10:10:37 10° SE visible
21 Apr 3.1 11:41:25 10° N 11:46:26 61° WNW 11:51:25 10° SSW visible
22 Apr 3.3 11:04:04 10° NNE 11:09:08 65° ESE 11:14:09 10° S visible
23 Apr 4.6 10:27:08 10° NNE 10:31:37 31° E 10:36:04 10° SSE visible
23 Apr 3.7 12:05:58 10° N 12:10:38 38° WNW 12:15:17 10° SW visible
24 Apr 5.5 09:51:06 10° NE 09:53:53 15° E 09:56:40 10° ESE visible
24 Apr 3.0 11:28:22 10° NNE 11:33:28 78° WNW 11:38:32 10° SSW visible
25 Apr 3.8 10:51:08 10° NNE 10:56:05 50° E 11:01:00 10° S visible
